AVA9297 SKCL-SKPS

Flight info

Callsign AVA9297
Flight time 0h 42m
Altitude 22000
Route ISOPA4B ISOPA G675 MER
Aircraft A320/M-SDE3FGHIRWY/LB1

Departure

Time 2026-05-06 18:07
Airport Alfonso Bonilla Aragon International Airport (SKCL)

Arrival

Time 2026-05-06 18:50
Airport Antonio Nariño Airport (SKPS)
Time Latitude Longitude Altitude Speed Heading
2026-05-06 17:46 3.53792 -76.38726 3163 ft 0 kts 321°
2026-05-06 17:58 3.53782 -76.38718 3165 ft 4 kts 313°
2026-05-06 17:58 3.53767 -76.38697 3165 ft 4 kts 287°
2026-05-06 17:58 3.53765 -76.38671 3166 ft 4 kts 258°
2026-05-06 17:59 3.53770 -76.38654 3166 ft 4 kts 244°
2026-05-06 17:59 3.53784 -76.38631 3165 ft 4 kts 232°
2026-05-06 17:59 3.53801 -76.38610 3163 ft 4 kts 224°
2026-05-06 17:59 3.53822 -76.38592 3163 ft 4 kts 219°
2026-05-06 18:00 3.53850 -76.38571 3163 ft 4 kts 215°
2026-05-06 18:00 3.53865 -76.38560 3163 ft 4 kts 217°
2026-05-06 18:00 3.53873 -76.38554 3163 ft 0 kts 220°
2026-05-06 18:02 3.53870 -76.38557 3164 ft 3 kts 220°
2026-05-06 18:02 3.53824 -76.38586 3196 ft 12 kts 192°
2026-05-06 18:02 3.53732 -76.38540 3163 ft 18 kts 148°
2026-05-06 18:03 3.53640 -76.38469 3162 ft 12 kts 106°
2026-05-06 18:03 3.53686 -76.38441 3162 ft 9 kts 13°
2026-05-06 18:03 3.53766 -76.38428 3164 ft 14 kts
2026-05-06 18:03 3.53876 -76.38407 3166 ft 18 kts 11°
2026-05-06 18:04 3.54013 -76.38378 3165 ft 22 kts
2026-05-06 18:04 3.54174 -76.38356 3165 ft 25 kts
2026-05-06 18:04 3.54341 -76.38331 3166 ft 24 kts 10°
2026-05-06 18:04 3.54512 -76.38298 3164 ft 25 kts 11°
2026-05-06 18:05 3.54688 -76.38266 3164 ft 26 kts 10°
2026-05-06 18:05 3.54868 -76.38236 3165 ft 26 kts 10°
2026-05-06 18:05 3.55048 -76.38205 3168 ft 26 kts
2026-05-06 18:05 3.55226 -76.38174 3171 ft 26 kts 10°
2026-05-06 18:06 3.55400 -76.38144 3174 ft 25 kts 10°
2026-05-06 18:06 3.55568 -76.38115 3176 ft 24 kts
2026-05-06 18:06 3.55662 -76.38045 3176 ft 16 kts 109°
2026-05-06 18:06 3.55593 -76.37948 3173 ft 22 kts 186°
2026-05-06 18:07 3.55322 -76.37992 3170 ft 72 kts 190°
2026-05-06 18:07 3.54600 -76.38117 3165 ft 135 kts 189°
2026-05-06 18:07 3.53505 -76.38311 3247 ft 177 kts 190°
2026-05-06 18:07 3.52300 -76.38530 4009 ft 176 kts 190°
2026-05-06 18:08 3.51084 -76.38742 4530 ft 184 kts 190°
2026-05-06 18:08 3.49750 -76.38975 4766 ft 205 kts 190°
2026-05-06 18:08 3.48285 -76.39230 4937 ft 228 kts 190°
2026-05-06 18:08 3.46635 -76.39518 5189 ft 253 kts 191°
2026-05-06 18:09 3.44817 -76.39835 5567 ft 275 kts 191°
2026-05-06 18:09 3.42906 -76.40166 6282 ft 281 kts 191°
2026-05-06 18:09 3.40962 -76.40501 7050 ft 285 kts 191°
2026-05-06 18:09 3.39068 -76.41106 7802 ft 288 kts 205°
2026-05-06 18:10 3.37237 -76.41947 8573 ft 291 kts 204°
2026-05-06 18:10 3.35386 -76.42804 9342 ft 295 kts 204°
2026-05-06 18:10 3.33515 -76.43671 10087 ft 298 kts 203°
2026-05-06 18:10 3.31594 -76.44560 10498 ft 314 kts 203°
2026-05-06 18:11 3.29531 -76.45510 10676 ft 338 kts 203°
2026-05-06 18:11 3.27347 -76.46515 11052 ft 351 kts 203°
2026-05-06 18:11 3.25111 -76.47546 11640 ft 356 kts 203°
2026-05-06 18:11 3.22846 -76.48591 12286 ft 360 kts 202°
2026-05-06 18:12 3.20557 -76.49649 12917 ft 364 kts 202°
2026-05-06 18:12 3.18243 -76.50718 13530 ft 368 kts 202°
2026-05-06 18:12 3.15905 -76.51795 14121 ft 372 kts 202°
2026-05-06 18:12 3.13543 -76.52885 14679 ft 375 kts 202°
2026-05-06 18:13 3.11190 -76.53970 15209 ft 379 kts 202°
2026-05-06 18:13 3.08776 -76.55081 15749 ft 383 kts 202°
2026-05-06 18:13 3.06344 -76.56198 16268 ft 387 kts 202°
2026-05-06 18:13 3.03882 -76.57333 16780 ft 391 kts 202°
2026-05-06 18:14 3.01399 -76.58482 17288 ft 395 kts 202°
2026-05-06 18:14 2.98892 -76.59644 17794 ft 399 kts 202°
2026-05-06 18:14 2.96365 -76.60820 18311 ft 403 kts 203°
2026-05-06 18:14 2.93818 -76.62004 18791 ft 405 kts 203°
2026-05-06 18:15 2.91250 -76.63194 19257 ft 408 kts 203°
2026-05-06 18:15 2.88663 -76.64388 19710 ft 410 kts 202°
2026-05-06 18:15 2.86064 -76.65586 20137 ft 413 kts 202°
2026-05-06 18:15 2.83439 -76.66794 20550 ft 416 kts 202°
2026-05-06 18:16 2.80803 -76.68012 20973 ft 419 kts 202°
2026-05-06 18:16 2.78144 -76.69243 21406 ft 422 kts 202°
2026-05-06 18:16 2.75474 -76.70477 21866 ft 424 kts 202°
2026-05-06 18:16 2.72787 -76.71718 22041 ft 426 kts 202°
2026-05-06 18:17 2.70090 -76.72964 22091 ft 428 kts 202°
2026-05-06 18:17 2.67386 -76.74215 22108 ft 429 kts 202°
2026-05-06 18:17 2.64676 -76.75469 22117 ft 429 kts 203°
2026-05-06 18:17 2.61966 -76.76721 22130 ft 429 kts 202°
2026-05-06 18:18 2.59257 -76.77970 22135 ft 429 kts 202°
2026-05-06 18:18 2.56541 -76.79224 22137 ft 429 kts 202°
2026-05-06 18:18 2.53830 -76.80477 22130 ft 429 kts 202°
2026-05-06 18:18 2.51123 -76.81729 22131 ft 429 kts 202°
2026-05-06 18:19 2.48414 -76.82980 22125 ft 429 kts 202°
2026-05-06 18:19 2.45704 -76.84228 22116 ft 428 kts 202°
2026-05-06 18:19 2.42997 -76.85473 22106 ft 429 kts 202°
2026-05-06 18:19 2.40319 -76.86709 22091 ft 429 kts 202°
2026-05-06 18:20 2.37613 -76.87963 22041 ft 429 kts 202°
2026-05-06 18:20 2.34905 -76.89221 22041 ft 429 kts 202°
2026-05-06 18:20 2.32201 -76.90476 22041 ft 429 kts 202°
2026-05-06 18:20 2.29496 -76.91728 22045 ft 429 kts 202°
2026-05-06 18:21 2.26787 -76.92980 22043 ft 429 kts 202°
2026-05-06 18:21 2.24075 -76.94233 22034 ft 429 kts 202°
2026-05-06 18:21 2.21369 -76.95481 21473 ft 429 kts 202°
2026-05-06 18:21 2.18661 -76.96729 20849 ft 427 kts 202°
2026-05-06 18:22 2.15969 -76.97972 20297 ft 424 kts 202°
2026-05-06 18:22 2.13302 -76.99208 19779 ft 421 kts 203°
2026-05-06 18:22 2.10659 -77.00436 19260 ft 417 kts 203°
2026-05-06 18:22 2.08040 -77.01652 18782 ft 414 kts 203°
2026-05-06 18:23 2.05437 -77.02860 18302 ft 410 kts 203°
2026-05-06 18:23 2.02855 -77.04058 17751 ft 407 kts 203°
2026-05-06 18:23 2.00296 -77.05241 17223 ft 403 kts 202°
2026-05-06 18:23 1.97760 -77.06414 16714 ft 400 kts 202°
2026-05-06 18:24 1.95247 -77.07577 16217 ft 397 kts 202°
2026-05-06 18:24 1.92754 -77.08731 15738 ft 394 kts 202°
2026-05-06 18:24 1.90279 -77.09876 15347 ft 388 kts 202°
2026-05-06 18:24 1.87876 -77.10989 15237 ft 375 kts 202°
2026-05-06 18:25 1.85547 -77.12071 15119 ft 363 kts 202°
2026-05-06 18:25 1.83294 -77.13116 15010 ft 351 kts 202°
2026-05-06 18:25 1.81125 -77.14122 15033 ft 336 kts 202°
2026-05-06 18:25 1.79043 -77.15086 15033 ft 323 kts 202°
2026-05-06 18:26 1.77241 -77.16309 15065 ft 315 kts 224°
2026-05-06 18:26 1.76035 -77.18097 15063 ft 307 kts 246°
2026-05-06 18:26 1.75546 -77.20128 15063 ft 298 kts 267°
2026-05-06 18:26 1.75744 -77.22158 15065 ft 292 kts 287°
2026-05-06 18:27 1.76576 -77.23993 15037 ft 290 kts 307°
2026-05-06 18:27 1.77946 -77.25454 15040 ft 288 kts 327°
2026-05-06 18:27 1.79692 -77.26385 15022 ft 283 kts 346°
2026-05-06 18:27 1.81608 -77.26706 15024 ft 277 kts
2026-05-06 18:28 1.83487 -77.26425 15028 ft 271 kts 23°
2026-05-06 18:28 1.85235 -77.25724 15028 ft 270 kts 29°
2026-05-06 18:28 1.86920 -77.24905 15028 ft 269 kts 31°
2026-05-06 18:28 1.88571 -77.24049 15026 ft 266 kts 31°
2026-05-06 18:29 1.90206 -77.23191 15025 ft 266 kts 31°
2026-05-06 18:29 1.91850 -77.22333 15040 ft 266 kts 31°
2026-05-06 18:29 1.93430 -77.21394 15038 ft 262 kts 42°
2026-05-06 18:29 1.94686 -77.20094 15029 ft 258 kts 58°
2026-05-06 18:30 1.95513 -77.18520 15032 ft 255 kts 73°
2026-05-06 18:30 1.95858 -77.16789 15032 ft 254 kts 89°
2026-05-06 18:30 1.95684 -77.15041 15032 ft 254 kts 104°
2026-05-06 18:30 1.95028 -77.13429 15033 ft 255 kts 120°
2026-05-06 18:31 1.93919 -77.12041 15032 ft 257 kts 135°
2026-05-06 18:31 1.92439 -77.11019 15043 ft 261 kts 151°
2026-05-06 18:31 1.90697 -77.10459 15043 ft 267 kts 168°
2026-05-06 18:31 1.88827 -77.10447 15043 ft 273 kts 186°
2026-05-06 18:32 1.86994 -77.11002 15046 ft 278 kts 199°
2026-05-06 18:32 1.85228 -77.11806 15048 ft 279 kts 202°
2026-05-06 18:32 1.83498 -77.12686 15046 ft 279 kts 204°
2026-05-06 18:32 1.81783 -77.13589 15046 ft 279 kts 204°
2026-05-06 18:33 1.80065 -77.14493 15048 ft 279 kts 204°
2026-05-06 18:33 1.78366 -77.15429 15072 ft 280 kts 213°
2026-05-06 18:33 1.77044 -77.16868 15075 ft 286 kts 239°
2026-05-06 18:33 1.76461 -77.18760 15075 ft 289 kts 267°
2026-05-06 18:34 1.76760 -77.20730 15078 ft 289 kts 295°
2026-05-06 18:34 1.77877 -77.22364 15079 ft 285 kts 322°
2026-05-06 18:34 1.79561 -77.23339 15030 ft 279 kts 348°
2026-05-06 18:34 1.81460 -77.23509 15031 ft 273 kts 13°
2026-05-06 18:35 1.83237 -77.22931 15039 ft 268 kts 29°
2026-05-06 18:35 1.84915 -77.22125 15051 ft 268 kts 30°
2026-05-06 18:35 1.86573 -77.21277 15048 ft 267 kts 31°
2026-05-06 18:35 1.88220 -77.20425 15047 ft 266 kts 31°
2026-05-06 18:36 1.89860 -77.19574 15048 ft 265 kts 33°
2026-05-06 18:36 1.91256 -77.18425 15047 ft 258 kts 56°
2026-05-06 18:36 1.92071 -77.16855 15048 ft 254 kts 77°
2026-05-06 18:36 1.92218 -77.15116 15048 ft 253 kts 98°
2026-05-06 18:37 1.91687 -77.13451 15049 ft 254 kts 119°
2026-05-06 18:37 1.90991 -77.12512 15049 ft 256 kts 133°
2026-05-06 18:37 1.88927 -77.11305 15048 ft 265 kts 163°
2026-05-06 18:37 1.87070 -77.11222 15049 ft 272 kts 187°
2026-05-06 18:38 1.85268 -77.11866 15059 ft 278 kts 201°
2026-05-06 18:38 1.83530 -77.12710 15055 ft 278 kts 203°
2026-05-06 18:38 1.81807 -77.13593 15054 ft 278 kts 204°
2026-05-06 18:38 1.80114 -77.14475 15054 ft 278 kts 204°
2026-05-06 18:39 1.78375 -77.15379 15026 ft 279 kts 204°
2026-05-06 18:39 1.76661 -77.16290 14781 ft 279 kts 205°
2026-05-06 18:39 1.74984 -77.17200 14554 ft 277 kts 204°
2026-05-06 18:40 1.71610 -77.19025 14136 ft 273 kts 204°
2026-05-06 18:40 1.69948 -77.19922 13964 ft 268 kts 204°
2026-05-06 18:40 1.68357 -77.20781 13964 ft 251 kts 204°
2026-05-06 18:40 1.66852 -77.21591 13713 ft 243 kts 204°
2026-05-06 18:41 1.65368 -77.22385 13291 ft 242 kts 204°
2026-05-06 18:41 1.63889 -77.23172 12853 ft 239 kts 203°
2026-05-06 18:41 1.62434 -77.23951 12479 ft 236 kts 203°
2026-05-06 18:41 1.60989 -77.24725 12096 ft 234 kts 203°
2026-05-06 18:42 1.59560 -77.25490 11705 ft 232 kts 204°
2026-05-06 18:42 1.58138 -77.26251 11353 ft 231 kts 203°
2026-05-06 18:42 1.56729 -77.27003 11011 ft 229 kts 203°
2026-05-06 18:42 1.55331 -77.27749 10673 ft 227 kts 203°
2026-05-06 18:43 1.53952 -77.28488 10269 ft 224 kts 204°
2026-05-06 18:43 1.52574 -77.29225 9892 ft 223 kts 202°
2026-05-06 18:43 1.51197 -77.29930 9504 ft 221 kts 202°
2026-05-06 18:43 1.49834 -77.30609 9124 ft 221 kts 203°
2026-05-06 18:44 1.48462 -77.31291 8804 ft 221 kts 202°
2026-05-06 18:44 1.47119 -77.31958 8746 ft 210 kts 203°
2026-05-06 18:44 1.45877 -77.32580 8749 ft 188 kts 202°
2026-05-06 18:44 1.45134 -77.32955 8766 ft 174 kts 202°
2026-05-06 18:45 1.44073 -77.33489 8756 ft 167 kts 201°
2026-05-06 18:45 1.43047 -77.34002 8748 ft 163 kts 203°
2026-05-06 18:45 1.42017 -77.34512 8748 ft 168 kts 203°
2026-05-06 18:45 1.40976 -77.35031 8755 ft 164 kts 202°
2026-05-06 18:46 1.39960 -77.35539 8807 ft 163 kts 203°
2026-05-06 18:46 1.38952 -77.36043 8817 ft 163 kts 202°
2026-05-06 18:46 1.37905 -77.36465 8695 ft 162 kts 190°
2026-05-06 18:46 1.36803 -77.36527 8437 ft 157 kts 171°
2026-05-06 18:47 1.35762 -77.36229 8229 ft 157 kts 153°
2026-05-06 18:47 1.34869 -77.35617 8007 ft 156 kts 134°
2026-05-06 18:47 1.34222 -77.34749 7782 ft 157 kts 116°
2026-05-06 18:47 1.33888 -77.33729 7517 ft 153 kts 99°
2026-05-06 18:48 1.33894 -77.32668 7301 ft 154 kts 82°
2026-05-06 18:48 1.34235 -77.31656 7136 ft 155 kts 63°
2026-05-06 18:48 1.34890 -77.30791 6899 ft 157 kts 43°
2026-05-06 18:48 1.35785 -77.30182 6662 ft 157 kts 25°
2026-05-06 18:49 1.36831 -77.29858 6412 ft 158 kts 14°
2026-05-06 18:49 1.37901 -77.29583 6173 ft 160 kts 17°
2026-05-06 18:49 1.38972 -77.29281 5951 ft 156 kts 15°
2026-05-06 18:49 1.39835 -77.29053 5895 ft 87 kts 14°
2026-05-06 18:50 1.40156 -77.28969 5883 ft 27 kts 16°
2026-05-06 18:50 1.40349 -77.28913 5873 ft 31 kts 15°
2026-05-06 18:50 1.40564 -77.28859 5863 ft 31 kts 13°
2026-05-06 18:50 1.40618 -77.28848 5853 ft 0 kts
2026-05-06 18:51 1.40615 -77.28849 5853 ft 3 kts
2026-05-06 18:51 1.40591 -77.28849 5859 ft 4 kts 355°
2026-05-06 18:51 1.40602 -77.28851 5854 ft 0 kts 355°
2026-05-06 18:51 1.40622 -77.28840 5852 ft 6 kts 78°
2026-05-06 18:52 1.40580 -77.28851 5869 ft 9 kts 198°
2026-05-06 18:52 1.40482 -77.28874 5864 ft 20 kts 191°
2026-05-06 18:52 1.40317 -77.28925 5869 ft 29 kts 192°
2026-05-06 18:52 1.40130 -77.28972 5879 ft 26 kts 194°
2026-05-06 18:53 1.39962 -77.29016 5895 ft 25 kts 195°
2026-05-06 18:53 1.39791 -77.29061 5897 ft 26 kts 194°
2026-05-06 18:53 1.39634 -77.29104 5906 ft 14 kts 192°
2026-05-06 18:53 1.39589 -77.29046 5908 ft 11 kts 86°
2026-05-06 18:54 1.39616 -77.29018 5907 ft 3 kts 77°
2026-05-06 18:54 1.39613 -77.29005 5906 ft 1 kts 93°
2026-05-06 18:54 1.39613 -77.28999 5906 ft 2 kts 93°
2026-05-06 18:54 1.39609 -77.28983 5906 ft 0 kts 110°
2026-05-06 18:55 1.39609 -77.28982 5906 ft 0 kts 108°